Monroe, NC

7:15 AM EDT on July 23, 2017 (GMT -0400)
Monroe

Weather History for KEQY - February, 2013

Change the Weather History Date:

Friday, February 22, 2013

  Actual Average (KCLT) Record (KCLT)
Temperature  
Mean Temperature 42 °F -  
Max Temperature 46 °F 58 °F 74 °F (1990)
Min Temperature 37 °F 35 °F 12 °F (1963)
Degree Days  
Heating Degree Days 24    
Moisture  
Dew Point 35 °F    
Average Humidity 89    
Maximum Humidity 96    
Minimum Humidity 39    
Precipitation  
Precipitation 0.00 in - - ()
Sea Level Pressure  
Sea Level Pressure 30.22 in    
Wind  
Wind Speed 8 mph (NE)    
Max Wind Speed 13 mph    
Max Gust Speed -    
Visibility 5 miles    
Events Rain    
Averages and records for this station are not official NWS values.
T = Trace of Precipitation, MM = Missing Value Source: NWS Daily Summary

Daily Weather History Graph

Daily Weather History Graph

Search for Another Location

Airport or City:

Trip Planner

Search our weather history database for the weather conditions in past years. The results will help you decide how hot, cold, wet, or windy it might be!

Date:

Astronomy

Feb. 22, 2013 Rise Set
Actual Time 7:00 AM EST 6:12 PM EST
Civil Twilight 6:34 AM EST 6:37 PM EST
Nautical Twilight 6:05 AM EST 7:07 PM EST
Astronomical Twilight 5:35 AM EST 7:36 PM EST
Moon 3:26 PM EST (2/22) 4:39 AM EST (2/22)
Length of Visible Light 12h 03m
Length of Day
11h 11m
Waxing Gibbous, 90% of the Moon is Illuminated
Feb 22
Waxing Gibbous
Feb 25
Full
Mar 4
Last Quarter
Mar 11
New
Mar 19
First Quarter

Hourly Weather History & Observations

Time (EST) Temp. Windchill Dew Point Humidity Pressure Visibility Wind Dir Wind Speed Gust Speed Precip Events Conditions
12:53 AM 46.9 °F - 23.0 °F 39% 30.25 in 10.0 mi ENE 9.2 mph - N/A   Overcast
1:53 AM 46.0 °F 41.0 °F 24.1 °F 42% 30.30 in 10.0 mi NE 10.4 mph - N/A   Overcast
2:53 AM 44.1 °F 37.7 °F 30.9 °F 60% 30.32 in 10.0 mi NNE 12.7 mph - N/A   Overcast
3:53 AM 41.0 °F 35.8 °F 34.0 °F 76% 30.26 in 10.0 mi East 8.1 mph - 0.00 in Rain Light Rain
4:53 AM 39.9 °F 36.7 °F 34.0 °F 79% 30.25 in 10.0 mi East 4.6 mph - 0.00 in Rain Light Rain
5:53 AM 39.0 °F 36.8 °F 34.0 °F 82% 30.28 in 9.0 mi East 3.5 mph - 0.00 in Rain Light Rain
6:53 AM 37.9 °F 33.5 °F 35.1 °F 89% 30.28 in 10.0 mi ENE 5.8 mph - 0.00 in Rain Light Rain
7:53 AM 37.9 °F 32.7 °F 36.0 °F 93% 30.30 in 9.0 mi NE 6.9 mph - 0.00 in   Overcast
8:23 AM 37.4 °F 30.3 °F 35.6 °F 93% 30.25 in 7.0 mi NE 10.4 mph - 0.00 in Rain Light Rain
8:53 AM 37.0 °F 30.4 °F 35.1 °F 93% 30.28 in 8.0 mi ENE 9.2 mph - 0.00 in   Overcast
9:06 AM 37.4 °F 30.3 °F 35.6 °F 93% 30.27 in 8.0 mi North 10.4 mph - N/A   Overcast
9:08 AM 37.4 °F 29.8 °F 35.6 °F 93% 30.25 in 8.0 mi NE 11.5 mph - N/A   Overcast
9:53 AM 37.9 °F 32.1 °F 35.1 °F 89% 30.30 in 10.0 mi NE 8.1 mph - N/A   Overcast
10:38 AM 37.4 °F 30.8 °F 33.8 °F 87% 30.25 in 10.0 mi NE 9.2 mph - N/A   Overcast
10:51 AM 37.4 °F 31.4 °F 33.8 °F 87% 30.26 in 10.0 mi NE 8.1 mph - N/A   Overcast
10:53 AM 37.9 °F 32.7 °F 34.0 °F 86% 30.31 in 10.0 mi NE 6.9 mph - N/A   Overcast
11:25 AM 37.4 °F 29.8 °F 35.6 °F 93% 30.24 in 5.0 mi NE 11.5 mph - 0.00 in Rain Light Rain
11:53 AM 37.0 °F 31.0 °F 34.0 °F 89% 30.30 in 4.0 mi NE 8.1 mph - 0.00 in Rain Light Rain
12:33 PM 37.4 °F 30.8 °F 35.6 °F 93% 30.22 in 4.0 mi NE 9.2 mph - 0.00 in Rain Light Rain
12:45 PM 37.4 °F 32.1 °F 35.6 °F 93% 30.21 in 4.0 mi NE 6.9 mph - 0.00 in Rain Light Rain
12:53 PM 37.0 °F 29.8 °F 35.1 °F 93% 30.26 in 3.0 mi ENE 10.4 mph - 0.00 in Rain Light Rain
12:59 PM 37.4 °F 31.4 °F 35.6 °F 93% 30.20 in 2.5 mi ENE 8.1 mph - N/A   Overcast
1:13 PM 37.4 °F 32.8 °F 35.6 °F 93% 30.19 in 4.0 mi ENE 5.8 mph - 0.00 in Rain Light Rain
1:22 PM 37.4 °F 33.8 °F 35.6 °F 93% 30.18 in 4.0 mi ENE 4.6 mph - 0.00 in Rain Light Rain
1:50 PM 37.4 °F 32.8 °F 35.6 °F 93% 30.18 in 2.5 mi Variable 5.8 mph - 0.00 in   Overcast
1:53 PM 37.0 °F 33.3 °F 35.1 °F 93% 30.23 in 2.5 mi ENE 4.6 mph - 0.00 in   Overcast
2:01 PM 37.4 °F 32.8 °F 35.6 °F 93% 30.18 in 3.0 mi NE 5.8 mph - N/A   Overcast
2:53 PM 37.9 °F 33.5 °F 36.0 °F 93% 30.24 in 4.0 mi NE 5.8 mph - 0.00 in Rain Light Rain
3:24 PM 37.4 °F 32.8 °F 35.6 °F 93% 30.18 in 2.5 mi NE 5.8 mph - 0.00 in Rain Light Rain
3:53 PM 37.9 °F 32.1 °F 36.0 °F 93% 30.24 in 2.5 mi NE 8.1 mph - 0.00 in Rain Light Rain
4:05 PM 37.4 °F 32.1 °F 35.6 °F 93% 30.18 in 3.0 mi NE 6.9 mph - 0.00 in Rain Light Rain
4:15 PM 37.4 °F 32.1 °F 35.6 °F 93% 30.18 in 2.5 mi NE 6.9 mph - 0.00 in Rain Light Rain
4:53 PM 37.0 °F 29.3 °F 36.0 °F 96% 30.23 in 2.5 mi NE 11.5 mph - 0.00 in   Overcast
5:41 PM 37.4 °F 31.4 °F 35.6 °F 93% 30.16 in 2.0 mi ENE 8.1 mph - 0.00 in   Overcast
5:53 PM 37.0 °F 31.6 °F 36.0 °F 96% 30.22 in 1.8 mi ENE 6.9 mph - 0.00 in   Overcast
6:10 PM 37.4 °F 32.8 °F 35.6 °F 93% 30.15 in 2.5 mi NE 5.8 mph - 0.00 in   Overcast
6:19 PM 37.4 °F 32.1 °F 35.6 °F 93% 30.15 in 3.0 mi ENE 6.9 mph - 0.00 in   Overcast
6:53 PM 37.0 °F 31.0 °F 36.0 °F 96% 30.19 in 4.0 mi ENE 8.1 mph - 0.00 in   Overcast
7:43 PM 37.4 °F 30.8 °F 35.6 °F 93% 30.15 in 2.5 mi NE 9.2 mph - N/A   Overcast
7:53 PM 37.0 °F 30.4 °F 36.0 °F 96% 30.22 in 2.5 mi NE 9.2 mph - N/A   Overcast
8:53 PM 37.0 °F 31.6 °F 36.0 °F 96% 30.22 in 2.5 mi NE 6.9 mph - N/A   Overcast
9:08 PM 37.4 °F 30.8 °F 35.6 °F 93% 30.15 in 3.0 mi NNE 9.2 mph - N/A   Overcast
9:18 PM 37.4 °F 30.8 °F 35.6 °F 93% 30.15 in 3.0 mi NE 9.2 mph - N/A   Overcast
9:53 PM 37.0 °F 31.0 °F 36.0 °F 96% 30.22 in 3.0 mi NE 8.1 mph - N/A   Overcast
10:01 PM 37.4 °F 32.1 °F 35.6 °F 93% 30.17 in 2.5 mi NNE 6.9 mph - N/A   Overcast
10:31 PM 37.4 °F 30.8 °F 35.6 °F 93% 30.15 in 1.8 mi NE 9.2 mph - N/A   Overcast
10:43 PM 37.4 °F 30.8 °F 35.6 °F 93% 30.14 in 2.0 mi NE 9.2 mph - N/A   Overcast
10:53 PM 37.0 °F 31.0 °F 36.0 °F 96% 30.19 in 2.5 mi ENE 8.1 mph - N/A   Overcast
11:17 PM 37.4 °F 32.1 °F 35.6 °F 93% 30.09 in 3.0 mi NE 6.9 mph - N/A   Overcast
11:53 PM 37.0 °F 31.0 °F 36.0 °F 96% 30.17 in 3.0 mi NNE 8.1 mph - N/A   Overcast